www.pogodaiklimat.ru

ПОГОДА в Ильичёвске

  • Прогноз погоды в Ильичёвске
  • Монитор погоды в Ильичёвске
  • Климат города

АРХИВ ПОГОДЫ в Ильичёвске

Время (UTC), дата Ветер
(напр.,м/с)
 
Видим.   Явления Облачность Т
(С)
Тd
(С)
f
(%)
Тe
(С)
Тes
(С)
Комфортность P
(гПа)
Po
(гПа)
Тmin
(С)
Tmax
(С)
R
(мм)
S
(см)
06 19.09 В 7 17 км слабый ливневой дождь 8/8 600 м
[Cb cap]
+18.1 +13.1 73 +17 +18 1012.2 1012.0 +17.8 0.0
09 19.09 В 7 н/о слабый ливневой дождь н/о +18.5 +15.0 80 +18 1012.8 1006.7
12 19.09 В 7 н/о 8 баллов +19.5 +13.9 70 +21 1011.4 1005.3 0.0
15 19.09 В 8 н/о ясно +19.2 +13.4 69 +20 +20 1010.1 1004.0
18 19.09 В 8 4000 м слабый ливневой дождь 10/10 600 м
[Cb cap]
+15.6 +12.9 84 +14 +14 1008.1 1008.0 +20.1 1
21 19.09 В 8 н/о слабый ливневой дождь н/о +13.6 +11.3 86 +11 1007.5 1001.3
00 20.09 СВ 8 н/о ливневой дождь н/о +13.3 +12.4 94 +10 1006.2 1000.0 15.0
03 20.09 В 10 н/о ливневой дождь н/о +12.8 +11.7 93 +9 1002.2 996.0
06 20.09 В 10 1000 м сильный ливневой дождь 10/10 540 м
[Cb cap]
+12.0 +11.7 98 +8 +8 999.9 1000.0 +11.6 48
09 20.09 С 8
{19}
н/о слабый ливневой дождь н/о +11.0 +10.5 97 +7 1003.6 997.3
12 20.09 З 8 н/о слабый ливневой дождь н/о +10.6 +9.8 95 +7 1005.0 998.7 32.0
15 20.09 В 8 н/о слабый ливневой дождь н/о +10.8 +9.4 91 +7 1006.3 1000.0
18 20.09 СЗ 2 10 км {ливн. осадки} 6/6 700 м
[Sc]
+10.4 +9.5 94 +9 +9 1007.1 1007.0 +12.0 36
21 20.09 СЗ 3 н/о 5 баллов +10.0 +7.2 83 +8 +8 1010.3 1004.0
00 21.09 СЗ 4 10 км 5/0
[Ac trans]
+8.4 +5.9 84 +5 +5 1009.7 1010.0
03 21.09 СЗ 3 н/о 4 балла +7.0 +4.7 85 +4 +4 1011.7 1005.3
06 21.09 З 4 н/о 3 балла +10.2 +5.0 70 +8 +9 1013.0 1006.7
09 21.09 З 3 н/о 7 баллов +14.4 +4.9 53 +14 +16 1012.9 1006.7
12 21.09 СЗ 5 30 км 6/3 600 м
[Cu med, cong Ac trans Ci sp]
+16.0 +2.1 39 +15 +17 1012.3 1012.0
15 21.09 СЗ 2 н/о 6 баллов +15.4 +4.4 48 +15 +16 1014.2 1008.0
18 21.09 З 1 н/о 7 баллов +12.5 +6.8 68 +13 +13 1015.6 1009.3
21 21.09 З 1 н/о 1 балл +10.6 +6.7 77 +10 +10 1017.0 1010.7
00 22.09 З 3 10 км ясно +9.4 +5.5 77 +7 +7 1014.6 1015.0
03 22.09 З 3 н/о ясно +8.0 +4.2 77 +5 +5 1017.1 1010.7
06 22.09 З 2 н/о ясно +10.8 +5.5 70 +10 +12 1017.0 1010.7
09 22.09 З 5 н/о ясно +15.6 +6.9 56 +15 +19 1016.9 1010.7
12 22.09 З 5 30 км 4/1 600 м
[Cu hum Ci fib]
+18.0 +7.1 49 +18 +21 1015.9 1016.0
15 22.09 З 4 н/о 4 балла +16.8 +6.9 52 +16 +17 1016.9 1010.7
18 22.09 СЗ 4 н/о ясно +14.0 +7.1 63 +13 +13 1018.3 1012.0
21 22.09 СЗ 2 н/о ясно +11.6 +7.3 75 +11 +11 1019.6 1013.3
00 23.09 СЗ 2 10 км ясно +9.7 +5.6 76 +8 +8 1017.8 1018.0
03 23.09 З 3 н/о ясно +8.4 +6.2 86 +6 +6 1019.7 1013.3
06 23.09 СЗ 4 н/о 3 балла +10.8 +7.5 80 +8 +9 1021.1 1014.7
09 23.09 СЗ 4 н/о 4 балла +15.2 +7.0 58 +14 +18 1022.3 1016.0
12 23.09 СЗ 5 30 км 8/5 600 м
[Cb calv]
+17.4 +4.3 42 +17 +18 1020.8 1021.0
15 23.09 СЗ 4 н/о 6 баллов +16.8 +4.5 44 +16 +16 1023.5 1017.3
18 23.09 СЗ 3 н/о 4 балла +13.6 +4.7 55 +13 +13 1025.0 1018.7
21 23.09 СЗ 2 н/о 3 балла +12.0 +6.1 67 +11 +11 1026.4 1020.0
00 24.09 СЗ 2 10 км ясно +10.4 +5.9 74 +9 +9 1024.6 1025.0
03 24.09 СЗ 3 н/о 6 баллов +10.8 +7.3 79 +9 +9 1026.4 1020.0
06 24.09 С 3 н/о 5 баллов +12.6 +7.5 71 +11 +12 1026.4 1020.0
09 24.09 С 2 н/о 4 балла +17.0 +7.9 55 +17 +23 1026.3 1020.0
12 24.09 С 1 н/о 8 баллов +17.5 +9.9 61 +19 +20 1026.3 1020.0
15 24.09 С 2 н/о 7 баллов +17.8 +8.4 54 +18 +18 1024.9 1018.7
18 24.09 З 2 н/о 5 баллов +14.6 +9.8 73 +14 +14 1025.0 1018.7
21 24.09 СЗ 1 н/о 7 баллов +14.0 +11.5 85 +14 +14 1025.0 1018.7
00 25.09 З 1 н/о 8 баллов +13.4 +11.3 87 +14 +14 1023.6 1017.3
03 25.09 СЗ 1 н/о 5 баллов +12.8 +10.5 86 +13 +13 1022.3 1016.0
06 25.09 СЗ 1 н/о 8 баллов +14.8 +11.2 79 +15 +16 1022.3 1016.0
09 25.09 СВ 2 н/о 8 баллов +18.2 +10.8 62 +19 +21 1022.2 1016.0
12 25.09 Ю 2 23 км 6/5 600 м
[Cb calv Ac trans]
+18.2 +10.9 62 +19 +22 1019.1 1019.0
15 25.09 ЮЗ 1 н/о 3 балла +16.6 +11.9 74 +17 +18 1019.5 1013.3
18 25.09 З 2 н/о 6 баллов +14.6 +10.0 74 +14 +14 1021.0 1014.7
21 25.09 З 3 н/о ясно +13.2 +10.6 84 +12 +12 1019.6 1013.3
00 26.09 СЗ 2 10 км 9/0
[Ac As]
+13.2 +10.5 84 +12 +12 1018.4 1018.0
03 26.09 СВ 2 н/о 9 баллов +13.2 +8.9 75 +13 +13 1019.6 1013.3

 

Местоположение метеостанции Ильичевск (Одесская область, Украина): широта 46.40 долгота 30.70 высота над уровнем моря 52 м.

В архиве по умолчанию представлена погода в Ильичёвске за последнюю неделю. Архивные данные за месяц целиком и за предыдущие месяцы, начиная с января 2011 года, Вы можете получить, выбрав интересующий диапазон дат из раскрывающегося списка и нажав кнопку "Ввод!".

Внимание! Время в таблицах - всемирное. Для получения местного времени необходимо прибавить поправку, которая в Ильичёвске равна 2 ч.

Ветер - указаны скорость ветра в м/с - средняя за 10 мин, порывы в срок и между сроками (в фигурных скобках) и направление, откуда дует ветер: С - северный, СВ - северо-восточный, В - восточный, ЮВ - юго-восточный, Ю - южный, ЮЗ - юго-западный, З - западный, СЗ - северо-западный.
Видимость - горизонтальная дальность видимости в метрах или километрах. При видимости от 1 до 10 км при отсутствии осадков обычно наблюдается дымка, при ухудшении видимости до 1 км и менее - туман. В сухую погоду видимость может ухудшаться дымом, пылью или мглою.
Явления - указаны атмосферные явления, наблюдавшиеся в срок или в последний час перед сроком; фигурными скобками обозначены явления, наблюдавшиеся между сроками (за 1-3 часа до срока); квадратными скобками обозначены град или гололедные отложения с указанием их диаметра в мм.
Облачность - указаны через наклонную черту общая и нижняя облачность в баллах и высота нижней границы облаков в метрах; квадратными скобками обозначены формы облаков: Ci - перистые, Cs - перисто-слоистые, Cc - перисто-кучевые, Ac - высококучевые, As - высокослоистые, Sc - слоисто-кучевые, Ns - слоисто-дождевые, Cu - кучевые, Cb - кучево-дождевые. Подробнее классификацию облаков см. в Атласе облаков (PDF).
T - Температура воздуха - температура, измеренная на высоте 2 м над землей.
Td - Температура точки росы - температура, при понижении до которой содержащийся в воздухе водяной пар достигнет насыщения.
f - Относительная влажность воздуха - влажноcть воздуха, измеренная на высоте 2 м над землей.
Te - Эффективная температура - температура, которую ощущает одетый по сезону человек в тени. Характеристика душности погоды. При расчете учитывается влияние влажности воздуха и скорости ветра на теплоощущения человека.
Tes - Эффективная температура на солнце - температура, которую ощущает человек, с поправкой на солнечный нагрев. Характеристика знойности погоды. Зависит от высоты солнца над горизонтом, облачности и скорости ветра. Ночью, в пасмурную погоду, а также при ветре 12 м/с и более поправка равна нулю.
P - Атмосферное давление - приведенное к уровню моря атмосферное давление.
Po - Атмосферное давление - измеренное на уровне метеостанции атмосферное давление.
Tmin - Минимальная температура - минимум температуры воздуха на высоте 2 м над землей.
Tmax - Максимальная температура - максимум температуры воздуха на высоте 2 м над землей.
R - Количество осадков - Количество выпавших осадков, мм. При наведении курсора мыши на число - период времени, за который выпало указанное количество осадков.
S - Снежный покров - Высота снежного покрова, см. При наведении курсора мыши на число - состояние снежного покрова и степень покрытия местности в баллах.